Location: ??
(34.9170°N, 135.5016°E)
Time: 11:43:46
(UTC+00:00)

Cosmos 2360 - Pass Details

Date: 29 October 2020
Orbit: 848 x 855 km, 70.8° (Epoch: 27 November)

Event Time Altitude Azimuth Distance (km) Brightness Sun altitude
Exits shadow 20:04:01 - 326° (NW) 2,573 6.3 -15.5°
Reaches altitude 10° 20:04:17 10° 325° (NW) 2,479 6.3 -15.4°
Maximum altitude 20:09:39 45° 254° (WSW) 1,144 4.5 -14.3°
Drops below altitude 10° 20:15:00 10° 183° (S) 2,461 6.7 -13.2°
Sets 20:17:32 0° 177° (S) 3,393 7.5 -12.7°
